Location: Los Ranchitos
(37.9930°N, 122.5425°W)
Time: 07:22:13
(UTC+00:00)

BREEZE-M DEB (TANK) - Pass Details

Date: 21 September 2020
Orbit: 315 x 16294 km, 49.4° (Epoch: 26 October)

Event Time Altitude Azimuth Distance (km) Brightness Sun altitude
Rises 02:39:37 0° 315° (NW) 2,158 6.3 -6.8°
Reaches altitude 10° 02:41:13 10° 331° (NNW) 1,520 5.1 -7.1°
Maximum altitude 02:43:50 26° 34° (NE) 1,255 3.9 -7.6°
Drops below altitude 10° 02:49:34 10° 91° (E) 3,492 5.7 -8.8°
Enters shadow 02:49:39 10° 91° (E) 3,532 5.7 -8.8°
